TimeCDT,TemperatureF,Dew PointF,Humidity,Sea Level PressureIn,VisibilityMPH,Wind Direction,Wind SpeedMPH,Gust SpeedMPH,PrecipitationIn,Events,Conditions,WindDirDegrees,DateUTC
12:13 AM,53.6,48.2,82,30.05,10.0,Calm,Calm,-,N/A,,Clear,0,2013-08-22 05:13:00
12:32 AM,51.8,48.2,88,30.05,10.0,Calm,Calm,-,N/A,,Clear,0,2013-08-22 05:32:00
12:53 AM,51.8,48.2,88,30.05,10.0,Calm,Calm,-,N/A,,Clear,0,2013-08-22 05:53:00
1:12 AM,51.8,48.2,88,30.06,10.0,Calm,Calm,-,N/A,,Scattered Clouds,0,2013-08-22 06:12:00
1:32 AM,53.6,50.0,88,30.07,10.0,Calm,Calm,-,N/A,,Mostly Cloudy,0,2013-08-22 06:32:00
1:53 AM,55.4,50.0,82,30.07,10.0,Calm,Calm,-,N/A,,Overcast,0,2013-08-22 06:53:00
2:12 AM,55.4,51.8,88,30.07,10.0,Calm,Calm,-,N/A,,Mostly Cloudy,0,2013-08-22 07:12:00
2:32 AM,55.4,51.8,88,30.09,10.0,Calm,Calm,-,N/A,,Mostly Cloudy,0,2013-08-22 07:32:00
2:53 AM,57.2,51.8,82,30.08,10.0,West,3.5,-,N/A,Rain,Light Rain,270,2013-08-22 07:53:00
3:12 AM,55.4,51.8,88,30.10,10.0,West,3.5,-,N/A,,Scattered Clouds,260,2013-08-22 08:12:00
3:32 AM,57.2,50.0,77,30.10,10.0,West,3.5,-,N/A,,Scattered Clouds,260,2013-08-22 08:32:00
3:53 AM,57.2,50.0,77,30.10,10.0,Calm,Calm,-,N/A,,Scattered Clouds,0,2013-08-22 08:53:00
4:13 AM,53.6,50.0,88,30.11,10.0,Calm,Calm,-,N/A,,Clear,0,2013-08-22 09:13:00
4:32 AM,53.6,48.2,82,30.11,10.0,Calm,Calm,-,N/A,,Clear,0,2013-08-22 09:32:00
4:53 AM,51.8,48.2,88,30.11,10.0,Calm,Calm,-,N/A,,Clear,0,2013-08-22 09:53:00
5:13 AM,50.0,48.2,94,30.11,10.0,Calm,Calm,-,N/A,,Clear,0,2013-08-22 10:13:00
5:32 AM,50.0,46.4,87,30.12,10.0,Calm,Calm,-,N/A,,Clear,0,2013-08-22 10:32:00
5:48 AM,48.2,46.4,93,30.12,10.0,Calm,Calm,-,N/A,,Clear,0,2013-08-22 10:48:00
6:13 AM,48.2,44.6,87,30.12,10.0,Calm,Calm,-,N/A,,Clear,0,2013-08-22 11:13:00
6:33 AM,46.4,46.4,100,30.13,10.0,Calm,Calm,-,N/A,,Clear,0,2013-08-22 11:33:00
6:53 AM,48.2,46.4,93,30.13,10.0,Calm,Calm,-,N/A,,Clear,0,2013-08-22 11:53:00
7:12 AM,48.2,46.4,93,30.13,10.0,Calm,Calm,-,N/A,,Clear,0,2013-08-22 12:12:00
7:33 AM,53.6,50.0,88,30.14,10.0,Calm,Calm,-,N/A,,Clear,0,2013-08-22 12:33:00
7:53 AM,57.2,51.8,82,30.14,10.0,Calm,Calm,-,N/A,,Clear,0,2013-08-22 12:53:00
8:12 AM,59.0,51.8,77,30.14,10.0,WNW,5.8,-,N/A,,Clear,290,2013-08-22 13:12:00
8:33 AM,60.8,51.8,72,30.14,10.0,NW,4.6,-,N/A,,Clear,310,2013-08-22 13:33:00
8:53 AM,62.6,51.8,68,30.14,10.0,NW,4.6,-,N/A,,Clear,320,2013-08-22 13:53:00
9:12 AM,62.6,50.0,63,30.14,10.0,NNW,4.6,-,N/A,,Clear,340,2013-08-22 14:12:00
9:33 AM,64.4,50.0,59,30.15,10.0,North,3.5,-,N/A,,Clear,350,2013-08-22 14:33:00
9:52 AM,64.4,48.2,56,30.15,10.0,Calm,Calm,-,N/A,,Clear,0,2013-08-22 14:52:00
10:13 AM,66.2,48.2,52,30.16,10.0,Calm,Calm,-,N/A,,Clear,0,2013-08-22 15:13:00
10:33 AM,66.2,48.2,52,30.16,10.0,Calm,Calm,-,N/A,,Clear,0,2013-08-22 15:33:00
10:52 AM,68.0,48.2,49,30.16,10.0,West,3.5,-,N/A,,Clear,280,2013-08-22 15:52:00
11:13 AM,68.0,46.4,46,30.16,10.0,NE,3.5,-,N/A,,Clear,50,2013-08-22 16:13:00
11:33 AM,69.8,48.2,46,30.16,10.0,NW,5.8,-,N/A,,Clear,310,2013-08-22 16:33:00
11:52 AM,68.0,46.4,46,30.17,10.0,WNW,4.6,-,N/A,,Clear,300,2013-08-22 16:52:00
12:12 PM,69.8,46.4,43,30.16,10.0,NNW,4.6,-,N/A,,Clear,330,2013-08-22 17:12:00
12:33 PM,69.8,46.4,43,30.16,10.0,NW,4.6,-,N/A,,Clear,310,2013-08-22 17:33:00
12:52 PM,71.6,46.4,41,30.16,10.0,WNW,9.2,-,N/A,,Clear,300,2013-08-22 17:52:00
1:12 PM,71.6,44.6,38,30.16,10.0,Calm,Calm,-,N/A,,Clear,0,2013-08-22 18:12:00
1:32 PM,71.6,44.6,38,30.15,10.0,Calm,Calm,-,N/A,,Scattered Clouds,0,2013-08-22 18:32:00
1:52 PM,71.6,44.6,38,30.15,10.0,WNW,11.5,17.3,N/A,,Scattered Clouds,300,2013-08-22 18:52:00
2:13 PM,71.6,44.6,38,30.15,10.0,Calm,Calm,-,N/A,,Clear,0,2013-08-22 19:13:00
2:33 PM,73.4,46.4,38,30.14,10.0,Calm,Calm,-,N/A,,Clear,0,2013-08-22 19:33:00
2:52 PM,73.4,44.6,36,30.14,10.0,North,4.6,-,N/A,,Clear,350,2013-08-22 19:52:00
3:13 PM,73.4,46.4,38,30.14,10.0,SW,4.6,-,N/A,,Clear,230,2013-08-22 20:13:00
3:33 PM,73.4,44.6,36,30.14,10.0,North,3.5,-,N/A,,Scattered Clouds,360,2013-08-22 20:33:00
3:52 PM,73.4,46.4,38,30.14,10.0,West,5.8,-,N/A,,Scattered Clouds,270,2013-08-22 20:52:00
4:13 PM,73.4,44.6,36,30.14,10.0,Calm,Calm,-,N/A,,Scattered Clouds,0,2013-08-22 21:13:00
4:33 PM,73.4,44.6,36,30.14,10.0,NNW,3.5,-,N/A,,Clear,330,2013-08-22 21:33:00
4:52 PM,73.4,42.8,33,30.14,10.0,NNW,6.9,-,N/A,,Clear,340,2013-08-22 21:52:00
5:12 PM,73.4,44.6,36,30.14,10.0,NNE,4.6,-,N/A,,Clear,20,2013-08-22 22:12:00
5:32 PM,73.4,42.8,33,30.14,10.0,Calm,Calm,-,N/A,,Clear,0,2013-08-22 22:32:00
5:53 PM,73.4,44.6,36,30.13,10.0,Calm,Calm,-,N/A,,Clear,0,2013-08-22 22:53:00
6:12 PM,73.4,44.6,36,30.13,10.0,NNW,3.5,-,N/A,,Clear,330,2013-08-22 23:12:00
6:32 PM,71.6,46.4,41,30.13,10.0,Calm,Calm,-,N/A,,Clear,0,2013-08-22 23:32:00
6:53 PM,71.6,46.4,41,30.13,10.0,Calm,Calm,-,N/A,,Clear,0,2013-08-22 23:53:00
7:12 PM,71.6,46.4,41,30.13,10.0,Calm,Calm,-,N/A,,Clear,0,2013-08-23 00:12:00
7:32 PM,69.8,48.2,46,30.13,10.0,Calm,Calm,-,N/A,,Clear,0,2013-08-23 00:32:00
7:53 PM,68.0,50.0,52,30.13,10.0,Calm,Calm,-,N/A,,Clear,0,2013-08-23 00:53:00
8:12 PM,64.4,53.6,68,30.14,10.0,Calm,Calm,-,N/A,,Clear,0,2013-08-23 01:12:00
8:32 PM,60.8,51.8,72,30.14,10.0,Calm,Calm,-,N/A,,Clear,0,2013-08-23 01:32:00
8:53 PM,59.0,51.8,77,30.15,10.0,Calm,Calm,-,N/A,,Clear,0,2013-08-23 01:53:00
9:12 PM,57.2,51.8,82,30.15,10.0,Calm,Calm,-,N/A,,Clear,0,2013-08-23 02:12:00
9:32 PM,55.4,51.8,88,30.15,10.0,Calm,Calm,-,N/A,,Clear,0,2013-08-23 02:32:00
9:53 PM,55.4,50.0,82,30.15,10.0,Calm,Calm,-,N/A,,Clear,0,2013-08-23 02:53:00
10:13 PM,53.6,50.0,88,30.15,10.0,Calm,Calm,-,N/A,,Clear,0,2013-08-23 03:13:00
10:33 PM,53.6,50.0,88,30.15,10.0,Calm,Calm,-,N/A,,Clear,0,2013-08-23 03:33:00
10:53 PM,53.6,50.0,88,30.16,10.0,Calm,Calm,-,N/A,,Clear,0,2013-08-23 03:53:00
11:12 PM,51.8,48.2,88,30.16,10.0,Calm,Calm,-,N/A,,Clear,0,2013-08-23 04:12:00
11:33 PM,51.8,48.2,88,30.16,10.0,Calm,Calm,-,N/A,,Clear,0,2013-08-23 04:33:00
11:53 PM,50.0,46.4,87,30.16,10.0,Calm,Calm,-,N/A,,Clear,0,2013-08-23 04:53:00